GFSNIL_prec_cloud_021.txt.gz
Cloud_Cover
38 67 39 13 53 6 22 20 50 96 46 8 34 88 30 5 2 1 0 5 5 3
100 98 98 15 5 5 5 40 79 64 98 100 65 74 85 100 85 89 7 5 4 5
100 100 100 100 100 98 49 9 5 5 5 6 40 46 14 50 100 100 84 43 7 6
100 100 100 100 100 100 100 100 100 83 17 26 95 92 70 43 40 26 100 100 100 65
100 100 100 100 100 100 100 100 100 100 100 100 100 98 79 50 88 55 31 94 100 100
100 100 100 100 100 100 100 100 100 100 100 100 100 100 100 100 91 19 5 98 40 96
100 100 100 100 100 100 100 100 100 92 100 100 100 100 100 89 88 99 60 63 95 100
100 100 100 100 100 100 100 100 100 100 100 100 100 100 100 100 100 84 46 82 100 100
37 38 85 100 100 100 100 100 100 100 86 100 100 100 100 100 100 100 100 94 100 100
0 0 0 1 59 99 100 100 100 100 100 100 100 100 100 100 100 100 100 100 100 100
0 0 0 0 0 0 11 63 69 67 47 30 51 66 80 98 100 100 100 100 100 100
0 0 0 0 0 0 0 0 0 0 0 0 0 0 0 3 5 66 100 100 100 100
0 1 2 4 1 0 0 0 0 0 0 0 0 0 0 0 5 5 5 97 100 100
5 5 5 11 18 5 5 5 5 1 0 0 0 0 0 0 2 5 5 6 66 100

GFSNIL_prec_cloud_024.txt.gz
Cloud_Cover
87 9 26 68 100 100 25 100 94 14 3 12 62 18 26 8 22 95 22 4 0 0
100 100 100 43 40 98 84 16 80 77 72 97 52 5 58 31 5 4 30 66 57 24
100 100 100 100 100 100 59 91 84 66 46 98 85 70 9 5 2 7 16 18 9 38
100 100 100 92 100 100 100 100 100 100 89 100 100 99 96 92 60 5 10 43 60 52
100 100 100 100 100 100 100 100 100 100 100 100 100 100 100 100 100 88 77 100 36 40
100 100 100 100 93 96 100 100 100 100 100 100 100 100 100 100 100 99 100 100 100 100
100 100 100 98 100 100 97 87 100 59 70 100 95 100 100 100 100 100 100 100 100 100
21 94 91 95 100 22 87 50 100 100 98 92 98 84 97 99 100 100 100 100 100 100
4 6 93 100 100 99 80 11 97 100 85 0 7 100 100 97 15 94 100 100 100 100
5 4 0 1 0 0 0 0 0 0 0 0 0 0 1 91 100 100 37 61 98 94
5 5 1 2 1 0 0 0 0 0 0 0 0 0 0 0 0 2 12 7 5 30
0 1 0 0 0 3 4 2 0 0 0 0 0 0 0 5 3 0 0 2 5 5
3 5 5 5 21 74 77 39 70 15 5 5 4 0 0 5 5 5 5 0 0 5
4 5 5 5 5 5 28 74 84 94 61 19 6 5 5 12 67 5 5 5 4 0

GFSNIL_prec_cloud_030.txt.gz
Cloud_Cover
97 12 53 100 96 98 100 95 68 88 51 74 42 68 94 100 91 88 100 100 100 100
38 96 100 100 100 100 100 100 87 95 100 83 99 100 94 100 100 100 94 81 100 100
5 23 78 85 80 28 99 100 94 41 91 100 100 99 100 100 100 100 100 100 100 100
8 5 100 25 20 63 81 42 42 5 5 5 83 88 100 100 100 99 97 100 100 97
98 93 33 22 5 0 5 9 100 97 17 5 5 6 11 98 100 100 100 100 97 100
0 0 0 0 0 0 0 0 0 5 11 9 2 2 81 99 5 92 100 100 100 100
0 0 0 0 0 3 4 3 1 2 60 1 0 0 1 28 3 3 16 12 98 87
0 0 0 5 5 5 5 3 3 0 0 25 82 0 0 0 0 0 0 0 4 27
4 3 2 5 5 0 0 0 0 0 0 0 0 2 6 69 6 5 5 5 4 2
5 5 5 5 0 0 0 0 0 0 0 0 3 8 96 100 100 92 94 34 10 6
5 5 1 0 0 0 0 0 0 0 2 4 4 16 79 100 99 86 100 100 100 98
5 5 2 5 1 0 0 4 5 5 5 5 5 5 71 100 98 95 83 92 98 100
1 5 5 5 5 5 5 5 5 5 5 5 5 6 91 100 100 100 100 100 100 96
4 5 5 5 5 5 5 6 35 73 70 78 55 5 99 100 100 100 97 98 100 100

GFSNIL_prec_cloud_033.txt.gz
Cloud_Cover
97 99 34 86 82 59 79 100 100 100 94 88 80 100 100 98 100 100 100 100 100 100
5 7 6 56 6 61 26 94 99 99 100 100 100 100 100 96 100 100 100 100 100 100
0 2 2 0 0 2 3 12 70 17 77 100 100 90 91 100 94 100 100 98 97 100
0 0 0 0 0 0 0 2 23 84 89 5 11 75 84 5 76 11 97 96 56 99
0 0 0 0 0 0 0 0 0 0 0 0 1 91 94 0 0 0 5 100 100 99
0 0 0 0 0 0 1 2 3 1 0 0 0 0 0 0 0 0 0 0 4 3
0 0 0 0 2 5 5 5 5 3 0 0 0 0 0 0 0 0 0 0 0 0
0 0 1 5 5 5 5 0 0 0 0 0 0 0 3 5 5 5 5 5 5 5
4 5 5 5 0 0 0 0 0 0 0 0 0 2 5 58 41 41 99 100 64 6
5 5 4 0 0 0 0 0 0 0 0 0 0 5 53 94 90 48 41 78 97 100
4 5 0 0 0 0 0 0 0 0 3 5 4 5 44 98 100 100 100 100 100 100
4 5 4 5 4 0 5 5 5 5 5 5 5 6 92 100 100 100 100 100 100 100
5 5 5 5 5 5 5 5 5 5 5 5 5 5 83 100 100 100 100 100 73 83
8 5 5 5 5 5 5 5 5 5 5 5 5 5 53 100 100 100 100 100 100 94